Terug naar catalogus

TIANHUI 5D

ActiefWetenschapSSO
NORAD 60212·PAYLOAD·🇨🇳 China

Gelanceerd Jul 4, 2024 vanaf Taiyuan Satellite Launch Center

Loading…

Volgende Passages (komende 24 uur)

TLE

VersSource: Space-Track

Epoch: Sep 14, 2026, 11:51 UTC

1 60212U 24126B   26257.49417656  .00000263  00000-0  34908-4 0  9999
2 60212  97.8213 263.7958 0002120  92.4667 267.6792 14.87579927119179

Volg TIANHUI 5D in realtime met AllMySat

Download on the App Store